| time (UTC) | temp F | wind direction | speed knots | gust knots | rain 1hr in | rain 24hr in | rain mn in | humidity % | barometer mb |
| 20260506185000 | 60 | 215 | 0.9 | 1.7 | 0.00 | 0.05 | 0.05 | 89 | 1007.9 |
| 20260506184457 | 60 | 215 | 0.9 | 1.7 | 0.00 | 0.05 | 0.05 | 89 | 1008.2 |
| 20260506183954 | 60 | 215 | 0.9 | 1.7 | 0.05 | 0.05 | 0.05 | 89 | 1007.7 |
| 20260506183449 | 60 | 171 | 1.7 | 1.7 | 0.05 | 0.05 | 0.05 | 89 | 1008.0 |
| 20260506182947 | 60 | 156 | 0.9 | 2.6 | 0.12 | 0.05 | 0.05 | 89 | 1007.9 |
| 20260506182444 | 60 | 165 | 0.0 | 1.7 | 0.07 | 0.04 | 0.04 | 89 | 1008.1 |
| 20260506181941 | 60 | 217 | 1.7 | 1.7 | 0.00 | 0.03 | 0.03 | 89 | 1008.0 |
| 20260506181439 | 60 | 200 | 0.9 | 1.7 | 0.00 | 0.03 | 0.03 | 89 | 1008.1 |
| 20260506180936 | 60 | 203 | 0.0 | 3.5 | 0.07 | 0.03 | 0.03 | 88 | 1007.8 |
| 20260506180432 | 60 | 185 | 1.7 | 2.6 | 0.07 | 0.03 | 0.03 | 89 | 1007.8 |
| 20260506175929 | 60 | 173 | 0.9 | 1.7 | 0.00 | 0.02 | 0.02 | 89 | 1008.0 |
| 20260506175426 | 60 | 167 | 1.7 | 1.7 | 0.05 | 0.02 | 0.02 | 88 | 1008.1 |
| 20260506174922 | 60 | 174 | 3.5 | 3.5 | 0.05 | 0.02 | 0.02 | 88 | 1008.0 |
| 20260506174420 | 61 | 190 | 1.7 | 5.2 | 0.00 | 0.01 | 0.01 | 87 | 1008.4 |
| 20260506173917 | 61 | 175 | 1.7 | 1.7 | 0.07 | 0.01 | 0.01 | 86 | 1008.7 |
| 20260506173414 | 61 | 154 | 0.9 | 2.6 | 0.07 | 0.01 | 0.01 | 85 | 1008.4 |
| 20260506172911 | 62 | 180 | 2.6 | 2.6 | 0.00 | 0.00 | 0.00 | 84 | 1008.7 |
| 20260506172408 | 62 | 157 | 0.9 | 1.7 | 0.00 | 0.00 | 0.00 | 82 | 1009.1 |
| 20260506171905 | 62 | 226 | 2.6 | 2.6 | 0.00 | 0.00 | 0.00 | 80 | 1008.8 |
| 20260506171402 | 63 | 170 | 2.6 | 2.6 | 0.00 | 0.00 | 0.00 | 79 | 1009.0 |
| 20260506170900 | 64 | 180 | 0.9 | 2.6 | 0.00 | 0.00 | 0.00 | 77 | 1009.2 |
| 20260506170356 | 64 | 194 | 1.7 | 3.5 | 0.00 | 0.00 | 0.00 | 75 | 1009.2 |
| 20260506165855 | 64 | 325 | 1.7 | 3.5 | 0.00 | 0.00 | 0.00 | 73 | 1009.3 |
| 20260506165353 | 65 | 167 | 1.7 | 3.5 | 0.00 | 0.00 | 0.00 | 72 | 1009.2 |
| 20260506164849 | 66 | 171 | 0.9 | 3.5 | 0.00 | 0.00 | 0.00 | 71 | 1009.1 |
| 20260506164345 | 66 | 227 | 1.7 | 2.6 | 0.00 | 0.00 | 0.00 | 71 | 1009.2 |
| 20260506163843 | 66 | 163 | 0.9 | 1.7 | 0.00 | 0.00 | 0.00 | 71 | 1009.2 |
| 20260506163338 | 66 | 202 | 1.7 | 2.6 | 0.00 | 0.00 | 0.00 | 70 | 1009.0 |
| 20260506162833 | 66 | 176 | 3.5 | 5.2 | 0.00 | 0.00 | 0.00 | 68 | 1008.9 |
| 20260506162331 | 67 | 253 | 2.6 | 2.6 | 0.00 | 0.00 | 0.00 | 68 | 1008.8 |
| 20260506161829 | 67 | 234 | 1.7 | 5.2 | 0.00 | 0.00 | 0.00 | 68 | 1008.7 |
| 20260506161326 | 68 | 154 | 1.7 | 2.6 | 0.00 | 0.00 | 0.00 | 67 | 1008.8 |
| 20260506160823 | 68 | 161 | 3.5 | 3.5 | 0.00 | 0.00 | 0.00 | 66 | 1009.1 |
| 20260506160319 | 67 | 245 | 1.7 | 2.6 | 0.00 | 0.00 | 0.00 | 67 | 1009.0 |
| 20260506155819 | 67 | 245 | 1.7 | 2.6 | 0.00 | 0.00 | 0.00 | 67 | 1009.2 |
| 20260506155315 | 67 | 159 | 3.5 | 3.5 | 0.00 | 0.00 | 0.00 | 67 | 1009.2 |
| 20260506153427 | 68 | 179 | 0.9 | 1.7 | 0.00 | 0.00 | 0.00 | 66 | 1009.2 |
| 20260506152925 | 68 | 3 | 0.9 | 0.9 | 0.00 | 0.00 | 0.00 | 66 | 1009.4 |
| 20260506152421 | 67 | 177 | 0.0 | 2.6 | 0.00 | 0.00 | 0.00 | 67 | 1009.3 |
| 20260506151920 | 67 | 313 | 0.9 | 2.6 | 0.00 | 0.00 | 0.00 | 67 | 1009.4 |
| 20260506151416 | 67 | 198 | 0.9 | 0.9 | 0.00 | 0.00 | 0.00 | 68 | 1009.4 |
| 20260506150914 | 67 | 324 | 1.7 | 1.7 | 0.00 | 0.00 | 0.00 | 67 | 1009.3 |
| 20260506150410 | 67 | 152 | 3.5 | 5.2 | 0.00 | 0.00 | 0.00 | 67 | 1009.6 |
| 20260506145907 | 66 | 190 | 0.0 | 0.9 | 0.00 | 0.00 | 0.00 | 68 | 1009.5 |
| 20260506145403 | 66 | 204 | 0.9 | 1.7 | 0.00 | 0.00 | 0.00 | 69 | 1009.5 |
| 20260506144901 | 66 | 169 | 2.6 | 2.6 | 0.00 | 0.00 | 0.00 | 69 | 1009.6 |
| 20260506144357 | 66 | 193 | 0.9 | 1.7 | 0.00 | 0.00 | 0.00 | 69 | 1009.5 |
| 20260506143856 | 66 | 193 | 0.9 | 2.6 | 0.00 | 0.00 | 0.00 | 68 | 1009.7 |
| 20260506143352 | 66 | 137 | 0.0 | 0.0 | 0.00 | 0.00 | 0.00 | 69 | 1009.8 |
| 20260506142851 | 66 | 126 | 1.7 | 2.6 | 0.00 | 0.00 | 0.00 | 69 | 1009.7 |
| 20260506142348 | 67 | 135 | 0.0 | 0.0 | 0.00 | 0.00 | 0.00 | 69 | 1010.0 |
| 20260506141846 | 66 | 165 | 1.7 | 1.7 | 0.00 | 0.00 | 0.00 | 69 | 1009.9 |
| 20260506141344 | 65 | 221 | 1.7 | 1.7 | 0.00 | 0.00 | 0.00 | 71 | 1009.9 |
| 20260506140842 | 65 | 176 | 1.7 | 2.6 | 0.00 | 0.00 | 0.00 | 71 | 1009.9 |
| 20260506140339 | 65 | 176 | 1.7 | 3.5 | 0.00 | 0.00 | 0.00 | 72 | 1009.8 |
| 20260506135836 | 65 | 299 | 0.0 | 0.9 | 0.00 | 0.00 | 0.00 | 72 | 1010.0 |
| 20260506135332 | 64 | 313 | 0.9 | 2.6 | 0.00 | 0.00 | 0.00 | 72 | 1009.7 |
| 20260506134829 | 64 | 224 | 1.7 | 2.6 | 0.00 | 0.00 | 0.00 | 72 | 1009.7 |
| 20260506134325 | 64 | 191 | 1.7 | 2.6 | 0.00 | 0.00 | 0.00 | 73 | 1009.8 |
| 20260506133822 | 64 | 176 | 2.6 | 3.5 | 0.00 | 0.00 | 0.00 | 73 | 1009.7 |
| 20260506133319 | 64 | 150 | 1.7 | 3.5 | 0.00 | 0.00 | 0.00 | 74 | 1009.6 |
| 20260506132816 | 64 | 254 | 0.9 | 1.7 | 0.00 | 0.00 | 0.00 | 74 | 1009.6 |
| 20260506132313 | 64 | 210 | 1.7 | 2.6 | 0.00 | 0.00 | 0.00 | 74 | 1009.8 |
| 20260506131811 | 63 | 198 | 0.9 | 1.7 | 0.00 | 0.00 | 0.00 | 74 | 1009.9 |
| 20260506131307 | 63 | 30 | 1.7 | 2.6 | 0.00 | 0.00 | 0.00 | 74 | 1009.8 |
| 20260506130804 | 63 | 200 | 1.7 | 1.7 | 0.00 | 0.00 | 0.00 | 75 | 1009.9 |
| 20260506130300 | 62 | 222 | 2.6 | 5.2 | 0.00 | 0.00 | 0.00 | 76 | 1010.1 |
| 20260506125759 | 62 | 349 | 1.7 | 2.6 | 0.00 | 0.00 | 0.00 | 76 | 1010.0 |
| 20260506125256 | 62 | 167 | 0.9 | 2.6 | 0.00 | 0.00 | 0.00 | 75 | 1010.0 |
| 20260506124754 | 62 | 199 | 0.9 | 0.9 | 0.00 | 0.00 | 0.00 | 76 | 1010.1 |
| 20260506124252 | 62 | 143 | 0.9 | 1.7 | 0.00 | 0.00 | 0.00 | 76 | 1010.4 |
| 20260506123749 | 62 | 155 | 0.9 | 0.9 | 0.00 | 0.00 | 0.00 | 76 | 1010.4 |
| 20260506123248 | 62 | 177 | 2.6 | 3.5 | 0.00 | 0.00 | 0.00 | 76 | 1010.4 |
| 20260506122744 | 62 | 225 | 0.0 | 0.9 | 0.00 | 0.00 | 0.00 | 76 | 1010.5 |
| 20260506122241 | 62 | 180 | 3.5 | 5.2 | 0.00 | 0.00 | 0.00 | 76 | 1010.3 |
| 20260506121739 | 62 | 193 | 0.9 | 2.6 | 0.00 | 0.00 | 0.00 | 76 | 1010.5 |
| 20260506121236 | 61 | 179 | 1.7 | 1.7 | 0.00 | 0.00 | 0.00 | 78 | 1010.3 |
| 20260506120733 | 61 | 180 | 0.9 | 3.5 | 0.00 | 0.00 | 0.00 | 78 | 1010.1 |
| 20260506120231 | 61 | 188 | 0.0 | 1.7 | 0.00 | 0.00 | 0.00 | 78 | 1010.3 |
| 20260506115729 | 61 | 191 | 0.0 | 0.9 | 0.00 | 0.00 | 0.00 | 78 | 1010.3 |
| 20260506115227 | 61 | 207 | 2.6 | 2.6 | 0.00 | 0.00 | 0.00 | 78 | 1010.4 |
| 20260506114724 | 60 | 186 | 2.6 | 2.6 | 0.00 | 0.00 | 0.00 | 79 | 1010.1 |
| 20260506114221 | 60 | 194 | 0.9 | 1.7 | 0.00 | 0.00 | 0.00 | 79 | 1010.5 |
| 20260506113720 | 60 | 146 | 0.9 | 2.6 | 0.00 | 0.00 | 0.00 | 79 | 1010.4 |
| 20260506113217 | 60 | 202 | 1.7 | 3.5 | 0.00 | 0.00 | 0.00 | 79 | 1010.5 |
| 20260506112713 | 60 | 219 | 0.0 | 2.6 | 0.00 | 0.00 | 0.00 | 79 | 1010.2 |
| 20260506112211 | 60 | 166 | 1.7 | 2.6 | 0.00 | 0.00 | 0.00 | 79 | 1010.3 |
| 20260506111708 | 59 | 211 | 0.0 | 2.6 | 0.00 | 0.00 | 0.00 | 81 | 1010.5 |
| 20260506111206 | 59 | 184 | 1.7 | 2.6 | 0.00 | 0.00 | 0.00 | 81 | 1010.7 |
| 20260506110703 | 59 | 205 | 2.6 | 2.6 | 0.00 | 0.00 | 0.00 | 81 | 1010.6 |
| 20260506110200 | 59 | 303 | 0.0 | 0.9 | 0.00 | 0.00 | 0.00 | 82 | 1010.7 |
| 20260506105657 | 58 | 152 | 0.9 | 1.7 | 0.00 | 0.00 | 0.00 | 83 | 1010.5 |
| 20260506105154 | 58 | 193 | 0.9 | 2.6 | 0.00 | 0.00 | 0.00 | 83 | 1010.4 |
| 20260506104652 | 58 | 238 | 0.0 | 2.6 | 0.00 | 0.00 | 0.00 | 83 | 1010.7 |
| 20260506104149 | 58 | 208 | 0.0 | 0.9 | 0.00 | 0.00 | 0.00 | 83 | 1010.8 |
| 20260506103646 | 58 | 181 | 0.9 | 1.7 | 0.00 | 0.00 | 0.00 | 83 | 1010.6 |
| 20260506103143 | 58 | 205 | 0.0 | 1.7 | 0.00 | 0.00 | 0.00 | 83 | 1010.5 |
| 20260506102641 | 58 | 201 | 0.0 | 1.7 | 0.00 | 0.00 | 0.00 | 83 | 1010.5 |
| 20260506102138 | 58 | 177 | 1.7 | 2.6 | 0.00 | 0.00 | 0.00 | 83 | 1010.2 |
| 20260506101635 | 57 | 248 | 0.0 | 1.7 | 0.00 | 0.00 | 0.00 | 84 | 1010.3 |
| 20260506101132 | 57 | 181 | 0.0 | 0.9 | 0.00 | 0.00 | 0.00 | 84 | 1010.2 |
| 20260506100631 | 57 | 187 | 0.9 | 0.9 | 0.00 | 0.00 | 0.00 | 83 | 1010.6 |
| 20260506100128 | 57 | 225 | 1.7 | 2.6 | 0.00 | 0.00 | 0.00 | 83 | 1010.2 |
| 20260506095627 | 57 | 182 | 0.0 | 2.6 | 0.00 | 0.00 | 0.00 | 84 | 1010.3 |
| 20260506095123 | 57 | 226 | 0.9 | 1.7 | 0.00 | 0.00 | 0.00 | 83 | 1010.3 |
| 20260506094620 | 57 | 168 | 0.9 | 0.9 | 0.00 | 0.00 | 0.00 | 83 | 1010.2 |
| 20260506094118 | 57 | 182 | 0.9 | 0.9 | 0.00 | 0.00 | 0.00 | 83 | 1010.2 |
| 20260506093616 | 57 | 183 | 0.0 | 1.7 | 0.00 | 0.00 | 0.00 | 83 | 1010.3 |
| 20260506093113 | 57 | 196 | 0.9 | 1.7 | 0.00 | 0.00 | 0.00 | 83 | 1010.3 |
| 20260506092611 | 57 | 216 | 0.9 | 3.5 | 0.00 | 0.00 | 0.00 | 82 | 1010.2 |
| 20260506092108 | 57 | 161 | 1.7 | 1.7 | 0.00 | 0.00 | 0.00 | 82 | 1010.2 |
| 20260506091606 | 58 | 267 | 0.0 | 1.7 | 0.00 | 0.00 | 0.00 | 82 | 1010.2 |
| 20260506091103 | 57 | 181 | 0.9 | 1.7 | 0.00 | 0.00 | 0.00 | 82 | 1010.3 |
| 20260506090601 | 57 | 180 | 0.0 | 0.9 | 0.00 | 0.00 | 0.00 | 82 | 1010.3 |
| 20260506090057 | 58 | 206 | 0.0 | 1.7 | 0.00 | 0.00 | 0.00 | 81 | 1010.2 |
| 20260506085554 | 58 | 202 | 0.9 | 1.7 | 0.00 | 0.00 | 0.00 | 81 | 1010.3 |
| 20260506085050 | 58 | 171 | 2.6 | 2.6 | 0.00 | 0.00 | 0.00 | 81 | 1010.2 |
| 20260506084547 | 58 | 196 | 0.0 | 1.7 | 0.00 | 0.00 | 0.00 | 81 | 1010.1 |
| 20260506084043 | 58 | 185 | 0.0 | 1.7 | 0.00 | 0.00 | 0.00 | 81 | 1010.5 |
| 20260506083541 | 58 | 188 | 0.0 | 0.9 | 0.00 | 0.00 | 0.00 | 80 | 1010.3 |
| 20260506083038 | 58 | 165 | 1.7 | 1.7 | 0.00 | 0.00 | 0.00 | 80 | 1010.5 |
| 20260506082535 | 58 | 187 | 0.9 | 1.7 | 0.00 | 0.00 | 0.00 | 80 | 1010.3 |
| 20260506082030 | 58 | 202 | 0.9 | 0.9 | 0.00 | 0.00 | 0.00 | 80 | 1010.5 |
| 20260506081529 | 58 | 185 | 0.9 | 1.7 | 0.00 | 0.00 | 0.00 | 80 | 1010.4 |
| 20260506081026 | 59 | 166 | 1.7 | 1.7 | 0.00 | 0.00 | 0.00 | 79 | 1010.2 |
| 20260506080523 | 59 | 174 | 0.9 | 2.6 | 0.00 | 0.00 | 0.00 | 79 | 1010.2 |
| 20260506073507 | 59 | 209 | 0.0 | 3.5 | 0.00 | 0.00 | 0.00 | 79 | 1010.4 |
| 20260506073004 | 59 | 184 | 0.9 | 3.5 | 0.00 | 0.00 | 0.00 | 79 | 1010.3 |
| 20260506072501 | 59 | 170 | 0.9 | 1.7 | 0.00 | 0.00 | 0.00 | 78 | 1010.3 |
| 20260506071959 | 59 | 207 | 0.0 | 1.7 | 0.00 | 0.00 | 0.00 | 77 | 1010.6 |
| 20260506071456 | 59 | 178 | 0.9 | 1.7 | 0.00 | 0.00 | 0.00 | 77 | 1010.6 |
| 20260506070953 | 59 | 170 | 0.0 | 1.7 | 0.00 | 0.00 | 0.00 | 78 | 1010.6 |
| 20260506070450 | 59 | 174 | 1.7 | 1.7 | 0.00 | 0.00 | 0.00 | 77 | 1010.6 |
| 20260506062428 | 61 | 182 | 1.7 | 1.7 | 0.00 | 0.00 | 0.00 | 75 | 1010.3 |
| 20260506061923 | 61 | 185 | 0.9 | 0.9 | 0.00 | 0.00 | 0.00 | 75 | 1010.2 |
| 20260506061420 | 61 | 166 | 1.7 | 2.6 | 0.00 | 0.00 | 0.00 | 75 | 1010.1 |
| 20260506060918 | 61 | 197 | 2.6 | 2.6 | 0.00 | 0.00 | 0.00 | 75 | 1010.3 |
| 20260506060416 | 61 | 198 | 0.9 | 1.7 | 0.00 | 0.00 | 0.00 | 74 | 1010.2 |
| 20260506051348 | 62 | 173 | 1.7 | 2.6 | 0.00 | 0.00 | 0.00 | 72 | 1010.4 |
| 20260506050845 | 62 | 279 | 0.9 | 3.5 | 0.00 | 0.00 | 0.00 | 72 | 1010.3 |
| 20260506050343 | 62 | 211 | 1.7 | 2.6 | 0.00 | 0.00 | 0.00 | 72 | 1010.6 |
| 20260506044833 | 63 | 168 | 2.6 | 7.0 | 0.00 | 0.00 | 0.00 | 70 | 1010.7 |
| 20260506044331 | 62 | 198 | 2.6 | 2.6 | 0.00 | 0.00 | 0.00 | 70 | 1010.6 |
| 20260506043828 | 63 | 157 | 0.9 | 2.6 | 0.00 | 0.00 | 0.00 | 69 | 1010.6 |
| 20260506043325 | 63 | 185 | 0.9 | 2.6 | 0.00 | 0.00 | 0.00 | 68 | 1010.5 |
| 20260506042823 | 63 | 201 | 1.7 | 3.5 | 0.00 | 0.00 | 0.00 | 68 | 1010.5 |
| 20260506042322 | 63 | 189 | 0.9 | 2.6 | 0.00 | 0.00 | 0.00 | 68 | 1010.5 |
| 20260506041821 | 63 | 178 | 1.7 | 2.6 | 0.00 | 0.00 | 0.00 | 68 | 1010.5 |
| 20260506041317 | 63 | 151 | 3.5 | 5.2 | 0.00 | 0.00 | 0.00 | 67 | 1010.5 |
| 20260506040814 | 63 | 188 | 1.7 | 3.5 | 0.00 | 0.00 | 0.00 | 67 | 1010.3 |
| 20260506040312 | 63 | 179 | 1.7 | 5.2 | 0.00 | 0.00 | 0.00 | 68 | 1010.4 |
| 20260506035808 | 63 | 181 | 1.7 | 2.6 | 0.00 | 0.00 | 0.00 | 67 | 1010.5 |
| 20260506035306 | 63 | 153 | 1.7 | 2.6 | 0.00 | 0.00 | 0.00 | 66 | 1010.5 |
| 20260506034802 | 63 | 182 | 2.6 | 3.5 | 0.00 | 0.00 | 0.00 | 66 | 1010.5 |
| 20260506034259 | 63 | 222 | 1.7 | 2.6 | 0.00 | 0.00 | 0.00 | 67 | 1010.4 |
| 20260506033756 | 63 | 243 | 0.9 | 2.6 | 0.00 | 0.00 | 0.00 | 66 | 1010.7 |
| 20260506033253 | 63 | 212 | 0.9 | 2.6 | 0.00 | 0.00 | 0.00 | 66 | 1010.6 |
| 20260506032750 | 63 | 197 | 1.7 | 3.5 | 0.00 | 0.00 | 0.00 | 66 | 1010.8 |
| 20260506032247 | 63 | 269 | 0.0 | 2.6 | 0.00 | 0.00 | 0.00 | 66 | 1010.7 |
| 20260506031744 | 63 | 162 | 1.7 | 2.6 | 0.00 | 0.00 | 0.00 | 66 | 1010.6 |
| 20260506031241 | 63 | 155 | 4.3 | 6.1 | 0.00 | 0.00 | 0.00 | 66 | 1010.5 |
| 20260506030739 | 63 | 153 | 1.7 | 2.6 | 0.00 | 0.00 | 0.00 | 66 | 1010.6 |
| 20260506030236 | 63 | 163 | 0.9 | 1.7 | 0.00 | 0.00 | 0.00 | 66 | 1010.7 |
| 20260506025733 | 63 | 193 | 0.0 | 3.5 | 0.00 | 0.00 | 0.00 | 66 | 1010.6 |
| 20260506025230 | 63 | 11 | 1.7 | 2.6 | 0.00 | 0.00 | 0.00 | 66 | 1010.5 |
| 20260506024726 | 64 | 189 | 0.9 | 2.6 | 0.00 | 0.00 | 0.00 | 65 | 1010.5 |
| 20260506024223 | 64 | 188 | 1.7 | 3.5 | 0.00 | 0.00 | 0.00 | 65 | 1010.5 |
| 20260506023719 | 64 | 198 | 1.7 | 2.6 | 0.00 | 0.00 | 0.00 | 65 | 1010.6 |
| 20260506023217 | 64 | 192 | 2.6 | 2.6 | 0.00 | 0.00 | 0.00 | 65 | 1010.4 |
| 20260506022713 | 64 | 191 | 0.9 | 1.7 | 0.00 | 0.00 | 0.00 | 64 | 1010.5 |
| 20260506022211 | 64 | 142 | 2.6 | 5.2 | 0.00 | 0.00 | 0.00 | 64 | 1010.4 |
| 20260506021709 | 64 | 196 | 0.9 | 2.6 | 0.00 | 0.00 | 0.00 | 65 | 1010.6 |
| 20260506021206 | 64 | 262 | 2.6 | 3.5 | 0.00 | 0.00 | 0.00 | 63 | 1010.3 |
| 20260506020703 | 64 | 173 | 1.7 | 3.5 | 0.00 | 0.00 | 0.00 | 64 | 1010.6 |
| 20260506020201 | 64 | 174 | 0.9 | 0.9 | 0.00 | 0.00 | 0.00 | 64 | 1010.4 |
| 20260506015658 | 64 | 171 | 3.5 | 3.5 | 0.00 | 0.00 | 0.00 | 62 | 1010.4 |
| 20260506015155 | 64 | 134 | 2.6 | 3.5 | 0.00 | 0.00 | 0.00 | 63 | 1010.4 |
| 20260506014652 | 64 | 168 | 0.9 | 1.7 | 0.00 | 0.00 | 0.00 | 63 | 1010.6 |
| 20260506014148 | 64 | 140 | 2.6 | 2.6 | 0.00 | 0.00 | 0.00 | 62 | 1010.2 |
| 20260506013646 | 64 | 227 | 1.7 | 2.6 | 0.00 | 0.00 | 0.00 | 62 | 1010.3 |
| 20260506013143 | 64 | 100 | 0.9 | 1.7 | 0.00 | 0.00 | 0.00 | 62 | 1010.2 |
| 20260506012639 | 65 | 214 | 0.9 | 0.9 | 0.00 | 0.00 | 0.00 | 62 | 1010.2 |
| 20260506012136 | 65 | 145 | 1.7 | 3.5 | 0.00 | 0.00 | 0.00 | 61 | 1010.1 |
| 20260506011633 | 65 | 194 | 1.7 | 1.7 | 0.00 | 0.00 | 0.00 | 60 | 1010.1 |
| 20260506011129 | 65 | 308 | 0.9 | 2.6 | 0.00 | 0.00 | 0.00 | 60 | 1009.9 |
| 20260506010628 | 66 | 204 | 1.7 | 1.7 | 0.00 | 0.00 | 0.00 | 60 | 1010.1 |
| 20260506010125 | 66 | 180 | 2.6 | 2.6 | 0.00 | 0.00 | 0.00 | 60 | 1009.9 |
| 20260506005622 | 66 | 169 | 0.9 | 1.7 | 0.00 | 0.00 | 0.00 | 60 | 1009.7 |
| 20260506005118 | 66 | 334 | 1.7 | 2.6 | 0.00 | 0.00 | 0.00 | 59 | 1009.6 |
| 20260506004615 | 66 | 184 | 1.7 | 1.7 | 0.00 | 0.00 | 0.00 | 60 | 1009.7 |
| 20260506004112 | 66 | 258 | 2.6 | 5.2 | 0.00 | 0.00 | 0.00 | 59 | 1009.7 |
| 20260506003608 | 67 | 191 | 1.7 | 6.1 | 0.00 | 0.00 | 0.00 | 59 | 1009.5 |
| 20260506003104 | 67 | 154 | 1.7 | 3.5 | 0.00 | 0.00 | 0.00 | 59 | 1009.4 |
| 20260506002600 | 67 | 195 | 1.7 | 6.1 | 0.00 | 0.00 | 0.00 | 58 | 1009.4 |
| 20260506002057 | 67 | 190 | 0.9 | 1.7 | 0.00 | 0.00 | 0.00 | 59 | 1009.4 |
| 20260506001553 | 67 | 204 | 2.6 | 6.1 | 0.00 | 0.00 | 0.00 | 58 | 1009.4 |
| 20260506001050 | 68 | 225 | 1.7 | 1.7 | 0.00 | 0.00 | 0.00 | 59 | 1009.3 |
| 20260506000548 | 68 | 173 | 2.6 | 3.5 | 0.00 | 0.00 | 0.00 | 57 | 1009.0 |
| 20260506000045 | 68 | 209 | 0.9 | 1.7 | 0.00 | 0.00 | 0.00 | 58 | 1009.0 |
| 20260505235543 | 68 | 211 | 1.7 | 2.6 | 0.00 | 0.00 | 0.00 | 57 | 1009.2 |
| 20260505235039 | 68 | 157 | 1.7 | 1.7 | 0.00 | 0.00 | 0.00 | 59 | 1008.9 |
| 20260505234536 | 68 | 204 | 1.7 | 2.6 | 0.00 | 0.00 | 0.00 | 58 | 1008.8 |
| 20260505234033 | 68 | 193 | 2.6 | 3.5 | 0.00 | 0.00 | 0.00 | 57 | 1008.7 |
| 20260505233531 | 68 | 181 | 0.9 | 3.5 | 0.00 | 0.00 | 0.00 | 58 | 1008.5 |
| 20260505233028 | 69 | 246 | 1.7 | 2.6 | 0.00 | 0.00 | 0.00 | 57 | 1008.5 |
| 20260505232526 | 69 | 280 | 0.9 | 2.6 | 0.00 | 0.00 | 0.00 | 56 | 1008.6 |
| 20260505232023 | 69 | 203 | 1.7 | 3.5 | 0.00 | 0.00 | 0.00 | 56 | 1008.8 |
| 20260505231520 | 70 | 328 | 0.9 | 5.2 | 0.00 | 0.00 | 0.00 | 55 | 1008.5 |
| 20260505231019 | 70 | 229 | 0.9 | 7.0 | 0.00 | 0.00 | 0.00 | 55 | 1008.4 |
| 20260505230515 | 70 | 171 | 2.6 | 3.5 | 0.00 | 0.00 | 0.00 | 55 | 1008.1 |
| 20260505230012 | 71 | 166 | 2.6 | 5.2 | 0.00 | 0.00 | 0.00 | 55 | 1008.2 |
| 20260505225509 | 71 | 30 | 0.0 | 2.6 | 0.00 | 0.00 | 0.00 | 53 | 1008.0 |
| 20260505225005 | 71 | 182 | 1.7 | 7.0 | 0.00 | 0.00 | 0.00 | 53 | 1008.0 |
| 20260505224502 | 72 | 177 | 2.6 | 3.5 | 0.00 | 0.00 | 0.00 | 53 | 1007.8 |
| 20260505223959 | 72 | 138 | 2.6 | 5.2 | 0.00 | 0.00 | 0.00 | 53 | 1007.8 |
| 20260505223456 | 72 | 178 | 3.5 | 3.5 | 0.00 | 0.00 | 0.00 | 52 | 1007.9 |
| 20260505222952 | 72 | 210 | 1.7 | 5.2 | 0.00 | 0.00 | 0.00 | 52 | 1007.9 |
| 20260505222449 | 73 | 242 | 2.6 | 2.6 | 0.00 | 0.00 | 0.00 | 51 | 1007.9 |
| 20260505221944 | 73 | 213 | 3.5 | 7.0 | 0.00 | 0.00 | 0.00 | 51 | 1007.9 |
| 20260505221442 | 73 | 191 | 0.9 | 5.2 | 0.00 | 0.00 | 0.00 | 51 | 1007.7 |
| 20260505220939 | 74 | 220 | 2.6 | 5.2 | 0.00 | 0.00 | 0.00 | 50 | 1007.7 |
| 20260505220436 | 74 | 255 | 1.7 | 6.1 | 0.00 | 0.00 | 0.00 | 50 | 1007.4 |
| 20260505215933 | 74 | 202 | 2.6 | 3.5 | 0.00 | 0.00 | 0.00 | 49 | 1007.6 |
| 20260505215432 | 75 | 181 | 3.5 | 5.2 | 0.00 | 0.00 | 0.00 | 50 | 1007.7 |
| 20260505214929 | 74 | 222 | 3.5 | 6.1 | 0.00 | 0.00 | 0.00 | 49 | 1007.7 |
| 20260505214427 | 75 | 143 | 5.2 | 7.8 | 0.00 | 0.00 | 0.00 | 48 | 1007.8 |
| 20260505213924 | 75 | 171 | 5.2 | 7.8 | 0.00 | 0.00 | 0.00 | 47 | 1007.9 |
| 20260505213421 | 75 | 59 | 1.7 | 3.5 | 0.00 | 0.00 | 0.00 | 48 | 1007.9 |
| 20260505212917 | 76 | 207 | 1.7 | 7.0 | 0.00 | 0.00 | 0.00 | 47 | 1007.8 |
| 20260505212414 | 76 | 191 | 1.7 | 7.0 | 0.00 | 0.00 | 0.00 | 48 | 1007.8 |
| 20260505211911 | 76 | 66 | 2.6 | 7.0 | 0.00 | 0.00 | 0.00 | 48 | 1007.6 |
| 20260505211409 | 76 | 97 | 3.5 | 5.2 | 0.00 | 0.00 | 0.00 | 47 | 1007.5 |
| 20260505210904 | 76 | 219 | 3.5 | 6.1 | 0.00 | 0.00 | 0.00 | 47 | 1007.3 |
| 20260505210402 | 77 | 224 | 3.5 | 3.5 | 0.00 | 0.00 | 0.00 | 47 | 1007.5 |
| 20260505205859 | 77 | 242 | 3.5 | 5.2 | 0.00 | 0.00 | 0.00 | 45 | 1007.6 |
| 20260505205357 | 77 | 254 | 2.6 | 5.2 | 0.00 | 0.00 | 0.00 | 47 | 1007.6 |
| 20260505204853 | 78 | 181 | 2.6 | 6.1 | 0.00 | 0.00 | 0.00 | 46 | 1007.6 |
| 20260505204351 | 78 | 201 | 1.7 | 6.1 | 0.00 | 0.00 | 0.00 | 46 | 1007.5 |
| 20260505203848 | 78 | 206 | 4.3 | 6.1 | 0.00 | 0.00 | 0.00 | 46 | 1007.5 |
| 20260505203344 | 77 | 183 | 2.6 | 11.3 | 0.00 | 0.00 | 0.00 | 46 | 1007.5 |
| 20260505202841 | 78 | 257 | 0.9 | 5.2 | 0.00 | 0.00 | 0.00 | 46 | 1007.4 |
| 20260505202337 | 78 | 174 | 2.6 | 5.2 | 0.00 | 0.00 | 0.00 | 45 | 1007.5 |
| 20260505201834 | 78 | 159 | 1.7 | 7.0 | 0.00 | 0.00 | 0.00 | 45 | 1007.6 |
| 20260505201332 | 79 | 184 | 5.2 | 6.1 | 0.00 | 0.00 | 0.00 | 45 | 1007.6 |
| 20260505200830 | 80 | 297 | 0.9 | 7.0 | 0.00 | 0.00 | 0.00 | 46 | 1007.5 |
| 20260505200326 | 80 | 186 | 0.9 | 3.5 | 0.00 | 0.00 | 0.00 | 47 | 1007.3 |
| 20260505195822 | 79 | 171 | 3.5 | 7.0 | 0.00 | 0.00 | 0.00 | 46 | 1007.5 |
| 20260505195319 | 80 | 181 | 3.5 | 6.1 | 0.00 | 0.00 | 0.00 | 44 | 1007.5 |
| 20260505194816 | 80 | 159 | 2.6 | 3.5 | 0.00 | 0.00 | 0.00 | 43 | 1007.3 |
| 20260505194314 | 81 | 81 | 4.3 | 6.1 | 0.00 | 0.00 | 0.00 | 42 | 1007.1 |
| 20260505193808 | 81 | 181 | 3.5 | 6.1 | 0.00 | 0.00 | 0.00 | 42 | 1007.4 |
| 20260505193307 | 80 | 348 | 0.9 | 6.1 | 0.00 | 0.00 | 0.00 | 42 | 1007.5 |
| 20260505192804 | 81 | 14 | 2.6 | 7.8 | 0.00 | 0.00 | 0.00 | 42 | 1007.5 |
| 20260505192305 | 81 | 184 | 1.7 | 1.7 | 0.00 | 0.00 | 0.00 | 43 | 1007.5 |
| 20260505191800 | 82 | 192 | 2.6 | 8.7 | 0.00 | 0.00 | 0.00 | 40 | 1007.6 |
| 20260505191258 | 82 | 326 | 1.7 | 3.5 | 0.00 | 0.00 | 0.00 | 43 | 1007.5 |
| 20260505190754 | 81 | 199 | 5.2 | 6.1 | 0.00 | 0.00 | 0.00 | 41 | 1007.7 |
| 20260505190249 | 82 | 195 | 3.5 | 6.1 | 0.00 | 0.00 | 0.00 | 41 | 1007.9 |
| 20260505185746 | 83 | 200 | 2.6 | 7.8 | 0.00 | 0.00 | 0.00 | 42 | 1007.7 |
| 20260505185242 | 84 | 158 | 0.9 | 5.2 | 0.00 | 0.00 | 0.00 | 41 | 1007.6 |